Regional Weather Roundup
Issued by NWS

Home | Current Version | Previous Version | Graphics & Text | Print | Product List | Glossary On
Versions: 1 2 3 4 5 6 7 8 9 10 11 12 13 14 15 16 17 18 19 20 21 22 23 24 25 26 27 28 29 30 31 32 33 34 35 36 37 38 39 40 41 42 43 44 45 46 47 48 49 50
000
ASUS43 KBIS 182101
RWRND

NORTH DAKOTA REGIONAL WEATHER ROUNDUP
NATIONAL WEATHER SERVICE BISMARCK ND
400 PM CDT SAT APR 18 2015

NOTE: "FAIR" INDICATES FEW OR NO CLOUDS BELOW 12,000 FEET WITH NO
SIGNIFICANT WEATHER AND/OR OBSTRUCTIONS TO VISIBILITY.


NDZ001>003-009>011-017-182200-
NORTHWEST NORTH DAKOTA

CITY           SKY/WX    TMP DP  RH WIND       PRES   REMARKS
WILLISTON      CLOUDY    59  40  49 N17       29.93R
MINOT          MOSUNNY   73  26  17 S17       29.84F
MINOT AFB      MOSUNNY   73  27  17 S15G23    29.83F
$$

NDZ018>021-031>035-040>046-182200-
SOUTHWEST NORTH DAKOTA

CITY           SKY/WX    TMP DP  RH WIND       PRES   REMARKS
BISMARCK       CLOUDY    63  31  30 CALM      29.92F
DICKINSON      PTSUNNY   67  38  34 SW18      29.87F
GARRISON         N/A     73  30  20 W7        29.86F
HETTINGER ARPT CLOUDY    57  38  48 SE9       29.95S
$$

NDZ004>008-012>016-024-026-027-054-182200-
NORTHEAST NORTH DAKOTA

CITY           SKY/WX    TMP DP  RH WIND       PRES   REMARKS
GRAND FORKS    CLOUDY    68  24  19 SE12      29.94F
GRND FRKS AFB  PTSUNNY   69  26  20 S10       29.93F HAZE
DEVILS LAKE    MOSUNNY   66  28  24 S15       29.92F
$$

NDZ022-023-025-028>030-036>039-047>053-182200-
SOUTHEAST NORTH DAKOTA

CITY           SKY/WX    TMP DP  RH WIND       PRES   REMARKS
FARGO          CLOUDY    73  28  18 E13G18    29.92F
JAMESTOWN      CLOUDY    71  23  16 S14       29.90F
$$



USA.gov is the U.S. government's official web portal to all federal, state and local government web resources and services.